Seldovia, AK

4:29 AM AKST on February 14, 2016 (GMT -0900)
Seldovia

Weather History for PASO - October, 2013

Change the Weather History Date:

Saturday, October 12, 2013

  Actual Average (PAHO) Record (PAHO)
Temperature  
Mean Temperature 48 °F -  
Max Temperature 52 °F 46 °F 55 °F (1969)
Min Temperature 44 °F 34 °F 21 °F (1939)
Degree Days  
Heating Degree Days 18    
Moisture  
Dew Point 42 °F    
Average Humidity 81    
Maximum Humidity 93    
Minimum Humidity 68    
Precipitation  
Precipitation 0.53 in - - ()
Sea Level Pressure  
Sea Level Pressure 29.66 in    
Wind  
Wind Speed 6 mph (South)    
Max Wind Speed 15 mph    
Max Gust Speed 26 mph    
Visibility 8 miles    
Events Rain    
Averages and records for this station are not official NWS values.
T = Trace of Precipitation, MM = Missing Value Source: NWS Daily Summary

Daily Weather History Graph

Daily Weather History Graph

Search for Another Location

Airport or City:

Trip Planner

Search our weather history database for the weather conditions in past years. The results will help you decide how hot, cold, wet, or windy it might be!

Date:

Astronomy

Oct. 12, 2013 Rise Set
Actual Time 8:38 AM AKDT 7:06 PM AKDT
Civil Twilight 7:57 AM AKDT 7:47 PM AKDT
Nautical Twilight 7:10 AM AKDT 8:34 PM AKDT
Astronomical Twilight 6:22 AM AKDT 9:22 PM AKDT
Moon 4:42 PM AKDT (10/12) 12:24 AM AKDT (10/12)
Length of Visible Light 11h 49m
Length of Day
10h 27m
First Quarter, 60% of the Moon is Illuminated
Oct 12
First Quarter
Oct 18
Full
Oct 26
Last Quarter
Nov 3
New
Nov 9
First Quarter

Hourly Weather History & Observations

Time (AKDT) Temp. Windchill Dew Point Humidity Pressure Visibility Wind Dir Wind Speed Gust Speed Precip Events Conditions
12:53 AM 46.0 °F 43.1 °F 42.1 °F 86% 29.77 in 8.0 mi Variable 5.8 mph - 0.03 in Rain Light Rain
1:53 AM 46.0 °F 43.1 °F 41.0 °F 83% 29.77 in 8.0 mi South 5.8 mph - 0.02 in Rain Light Rain
2:53 AM 45.0 °F 38.2 °F 41.0 °F 86% 29.75 in 4.0 mi South 15.0 mph 21.9 mph 0.06 in Rain Rain
3:53 AM 45.0 °F 41.2 °F 41.0 °F 86% 29.75 in 10.0 mi South 6.9 mph - 0.06 in Rain Light Rain
4:53 AM 44.1 °F 42.5 °F 42.1 °F 93% 29.74 in 10.0 mi North 3.5 mph - 0.03 in Rain Light Rain
5:53 AM 45.0 °F - 43.0 °F 93% 29.73 in 10.0 mi Calm Calm - 0.02 in Rain Light Rain
6:53 AM 45.0 °F 43.5 °F 43.0 °F 93% 29.72 in 8.0 mi Variable 3.5 mph - 0.01 in Rain Light Rain
7:53 AM 48.0 °F - 43.0 °F 83% 29.70 in 8.0 mi South 10.4 mph 18.4 mph 0.03 in Rain Light Rain
8:53 AM 48.0 °F - 44.1 °F 86% 29.72 in 7.0 mi South 8.1 mph 18.4 mph 0.04 in Rain Light Rain
9:53 AM 48.0 °F - 44.1 °F 86% 29.71 in 8.0 mi SSW 6.9 mph - 0.03 in Rain Light Rain
10:53 AM 48.9 °F - 44.1 °F 83% 29.70 in 9.0 mi Variable 5.8 mph - 0.03 in Rain Light Rain
11:53 AM 48.0 °F - 45.0 °F 89% 29.71 in 3.0 mi Calm Calm - 0.03 in Rain Light Rain
12:53 PM 48.9 °F - 43.0 °F 80% 29.70 in 4.0 mi Calm Calm - 0.03 in Rain Light Rain
1:53 PM 50.0 °F - 42.1 °F 74% 29.69 in 7.0 mi Variable 6.9 mph - 0.02 in Rain Light Rain
2:53 PM 50.0 °F - 42.1 °F 74% 29.67 in 10.0 mi South 10.4 mph 18.4 mph 0.01 in Rain Light Rain
3:53 PM 51.1 °F - 41.0 °F 68% 29.64 in 10.0 mi South 8.1 mph 26.5 mph 0.00 in Rain Light Rain
4:53 PM 48.9 °F - 42.1 °F 77% 29.62 in 10.0 mi Variable 3.5 mph - 0.00 in Rain Light Rain
5:53 PM 50.0 °F - 39.9 °F 68% 29.61 in 10.0 mi Variable 5.8 mph 18.4 mph 0.01 in Rain Light Rain
6:53 PM 48.9 °F - 41.0 °F 74% 29.59 in 10.0 mi Variable 3.5 mph - 0.01 in Rain Light Rain
7:53 PM 48.9 °F - 41.0 °F 74% 29.54 in 10.0 mi North 8.1 mph - 0.00 in   Overcast
8:53 PM 48.9 °F - 42.1 °F 77% 29.50 in 10.0 mi Variable 4.6 mph - N/A   Overcast
9:53 PM 48.9 °F - 43.0 °F 80% 29.49 in 10.0 mi Calm Calm - 0.00 in Rain Light Rain
10:53 PM 50.0 °F - 43.0 °F 77% 29.47 in 10.0 mi Variable 4.6 mph - 0.01 in Rain Light Rain
11:53 PM 48.9 °F - 44.1 °F 83% 29.47 in 6.0 mi South 8.1 mph - 0.05 in Rain Light Rain